GW6225 Weather Reports


Display with metric or nautical units.
time (UTC)temp
F
wind
direction
speed
MPH
gust
MPH
rain 1hr
in
rain 24hr
in
rain mn
in
humidity
%
barometer
mb
20260510065631 75 170 2.0 5.0 0.00 0.00 0.00 98 1011.9
20260510065128 75 144 1.0 2.0 0.00 0.00 0.00 98 1011.9
20260510064624 75 124 1.0 3.0 0.00 0.00 0.00 98 1012.1
20260510064122 75 153 1.0 2.0 0.00 0.00 0.00 98 1012.2
20260510063618 75 134 1.0 2.0 0.00 0.00 0.00 98 1012.4
20260510063115 75 160 1.0 2.0 0.00 0.00 0.00 98 1012.3
20260510062610 75 149 0.0 0.0 0.00 0.00 0.00 98 1012.4
20260510062106 75 172 1.0 2.0 0.00 0.00 0.00 97 1012.4
20260510061603 75 140 2.0 3.0 0.00 0.00 0.00 97 1012.5
20260510061100 75 142 1.0 1.0 0.00 0.00 0.00 97 1012.5
20260510060555 75 140 0.0 1.0 0.00 0.00 0.00 97 1012.5
20260510060052 75 149 2.0 2.0 0.00 0.00 0.00 96 1012.5
20260510055548 75 142 2.0 2.0 0.00 0.00 0.00 96 1012.5
20260510055047 75 146 3.0 3.0 0.00 0.00 0.00 96 1012.5
20260510054542 75 136 1.0 2.0 0.00 0.00 0.00 96 1012.4
20260510054037 75 150 2.0 2.0 0.00 0.00 0.00 95 1012.6
20260510053532 75 165 3.0 5.0 0.00 0.00 0.00 95 1012.6
20260510053029 76 170 3.0 5.0 0.00 0.00 0.00 95 1012.5
20260510052525 76 142 0.0 0.0 0.00 0.00 0.00 95 1012.7
20260510052021 76 130 1.0 2.0 0.00 0.00 0.00 96 1012.8
20260510051517 76 144 0.0 0.0 0.00 0.00 0.00 96 1012.8
20260510051014 76 165 1.0 2.0 0.00 0.00 0.00 96 1012.6
20260510050511 76 126 1.0 2.0 0.00 0.00 0.00 96 1012.8
20260510050008 76 135 0.0 1.0 0.00 0.00 0.00 97 1013.0
20260510045505 76 137 2.0 2.0 0.00 0.00 0.00 97 1012.8
20260510045001 76 133 2.0 3.0 0.00 0.00 0.00 97 1012.9
20260510044458 76 137 3.0 3.0 0.00 0.00 0.00 97 1012.7
20260510043956 76 126 4.0 5.0 0.00 0.00 0.00 97 1012.8
20260510043451 76 167 1.0 2.0 0.00 0.00 0.00 97 1013.1
20260510042949 76 133 0.0 1.0 0.00 0.00 0.00 97 1013.2
20260510042445 76 128 1.0 2.0 0.00 0.00 0.00 97 1013.1
20260510041941 76 129 0.0 1.0 0.00 0.00 0.00 97 1013.2
20260510041438 76 138 0.0 0.0 0.00 0.00 0.00 97 1013.1
20260510040936 76 121 0.0 0.0 0.00 0.00 0.00 97 1013.2
20260510040432 76 141 2.0 2.0 0.00 0.00 0.00 97 1013.1
20260510035928 76 131 2.0 2.0 0.00 0.00 0.00 96 1013.0
20260510035425 76 155 1.0 2.0 0.00 0.00 0.00 96 1012.9
20260510034924 76 139 3.0 3.0 0.00 0.00 0.00 96 1012.9
20260510034424 76 147 2.0 3.0 0.00 0.00 0.00 96 1012.9
20260510033919 77 149 1.0 2.0 0.00 0.00 0.00 96 1013.1
20260510033416 77 152 1.0 2.0 0.00 0.00 0.00 96 1013.2
20260510032912 77 133 3.0 5.0 0.00 0.00 0.00 96 1013.0
20260510032409 77 134 0.0 0.0 0.00 0.00 0.00 96 1013.0
20260510031905 77 142 0.0 0.0 0.00 0.00 0.00 95 1013.1
20260510031400 77 158 0.0 0.0 0.00 0.00 0.00 95 1013.1
20260510030900 77 136 0.0 0.0 0.00 0.00 0.00 95 1012.9
20260510030357 76 145 0.0 0.0 0.00 0.00 0.00 95 1012.8
20260510025855 76 186 1.0 1.0 0.00 0.00 0.00 94 1012.7
20260510025352 76 132 0.0 1.0 0.00 0.00 0.00 94 1012.5
20260510024849 77 152 1.0 1.0 0.00 0.00 0.00 94 1012.4
20260510024345 77 142 0.0 0.0 0.00 0.00 0.00 94 1012.3
20260510023842 77 137 0.0 0.0 0.00 0.00 0.00 93 1012.4
20260510023338 76 139 1.0 1.0 0.00 0.00 0.00 93 1012.4
20260510022836 77 126 0.0 0.0 0.00 0.00 0.00 92 1012.5
20260510022335 77 152 0.0 0.0 0.00 0.00 0.00 92 1011.9
20260510021834 77 140 0.0 1.0 0.00 0.00 0.00 92 1011.9
20260510021332 77 149 0.0 2.0 0.00 0.00 0.00 92 1011.9
20260510020828 77 138 1.0 1.0 0.00 0.00 0.00 92 1011.6
20260510020323 77 142 0.0 0.0 0.00 0.00 0.00 92 1011.3
20260510015819 77 146 1.0 2.0 0.00 0.00 0.00 92 1011.4
20260510015315 77 130 0.0 0.0 0.00 0.00 0.00 92 1011.2
20260510014816 77 113 3.0 5.0 0.00 0.00 0.00 92 1010.9
20260510014313 77 139 1.0 1.0 0.00 0.00 0.00 91 1011.0
20260510013809 78 147 0.0 0.0 0.00 0.00 0.00 91 1011.1
20260510013305 78 137 0.0 0.0 0.00 0.00 0.00 91 1011.1
20260510012800 78 140 0.0 1.0 0.00 0.00 0.00 91 1010.8
20260510012255 78 152 2.0 2.0 0.00 0.00 0.00 90 1010.5
20260510011755 78 142 0.0 0.0 0.00 0.00 0.00 90 1010.4
20260510011251 78 136 1.0 1.0 0.00 0.00 0.00 90 1009.9
20260510010748 78 153 3.0 5.0 0.00 0.00 0.00 89 1010.0
20260510010244 79 151 1.0 1.0 0.00 0.00 0.00 89 1010.1
20260510005741 79 147 1.0 1.0 0.00 0.00 0.00 88 1010.3
20260510005237 79 133 0.0 0.0 0.00 0.00 0.00 87 1010.1
20260510004735 79 138 1.0 1.0 0.00 0.00 0.00 86 1010.2
20260510004233 80 135 1.0 1.0 0.00 0.00 0.00 85 1010.1
20260510003730 80 114 3.0 5.0 0.00 0.00 0.00 84 1010.3
20260510003226 80 137 0.0 1.0 0.00 0.00 0.00 83 1010.2
20260510002725 81 144 3.0 5.0 0.00 0.00 0.00 82 1010.1
20260510002223 81 136 1.0 2.0 0.00 0.00 0.00 80 1010.1
20260510001719 82 147 3.0 3.0 0.00 0.00 0.00 79 1010.1
20260510001218 83 190 2.0 2.0 0.00 0.00 0.00 76 1010.0
20260510000714 84 156 1.0 2.0 0.00 0.00 0.00 74 1009.8
20260510000211 86 205 4.0 5.0 0.00 0.00 0.00 71 1009.8
20260509235708 87 174 3.0 6.0 0.00 0.00 0.00 67 1009.7
20260509235204 88 124 2.0 2.0 0.00 0.00 0.00 63 1009.6
20260509234700 90 171 1.0 2.0 0.00 0.00 0.00 59 1009.6
20260509234157 90 155 3.0 3.0 0.00 0.00 0.00 60 1009.5
20260509233655 90 138 3.0 3.0 0.00 0.00 0.00 58 1009.6
20260509233153 90 175 4.0 5.0 0.00 0.00 0.00 59 1009.4
20260509232649 92 153 1.0 2.0 0.00 0.00 0.00 57 1009.6
20260509232146 92 144 3.0 3.0 0.00 0.00 0.00 57 1009.6
20260509231642 94 135 2.0 3.0 0.00 0.00 0.00 54 1009.4
20260509231140 94 137 2.0 2.0 0.00 0.00 0.00 57 1009.6
20260509230637 93 152 1.0 2.0 0.00 0.00 0.00 57 1009.4
20260509230134 92 127 3.0 3.0 0.00 0.00 0.00 59 1009.5
20260509225629 94 160 3.0 5.0 0.00 0.00 0.00 58 1009.4
20260509225125 94 148 4.0 5.0 0.00 0.00 0.00 58 1009.4
20260509224620 94 153 1.0 2.0 0.00 0.00 0.00 52 1009.4
20260509224118 95 161 3.0 3.0 0.00 0.00 0.00 48 1009.3
20260509223615 94 156 2.0 3.0 0.00 0.00 0.00 52 1009.4
20260509223112 95 151 3.0 5.0 0.00 0.00 0.00 51 1009.3
20260509222608 95 95 2.0 3.0 0.00 0.00 0.00 51 1009.3
20260509222104 96 147 2.0 2.0 0.00 0.00 0.00 50 1009.3
20260509221600 96 147 2.0 2.0 0.00 0.00 0.00 49 1009.1
20260509221056 96 144 1.0 1.0 0.00 0.00 0.00 49 1009.1
20260509220552 96 150 2.0 2.0 0.00 0.00 0.00 52 1009.0
20260509220049 96 134 3.0 3.0 0.00 0.00 0.00 51 1009.0
20260509215544 98 121 0.0 0.0 0.00 0.00 0.00 52 1008.9
20260509215042 98 133 1.0 1.0 0.00 0.00 0.00 51 1009.1
20260509214539 97 147 0.0 0.0 0.00 0.00 0.00 54 1009.2
20260509214035 96 137 0.0 0.0 0.00 0.00 0.00 57 1009.0
20260509213532 97 171 1.0 2.0 0.00 0.00 0.00 55 1008.8
20260509213029 95 162 0.0 0.0 0.00 0.00 0.00 57 1009.1
20260509212526 96 147 1.0 1.0 0.00 0.00 0.00 54 1008.9
20260509212023 95 54 0.0 0.0 0.00 0.00 0.00 57 1008.9
20260509211518 95 145 0.0 0.0 0.00 0.00 0.00 54 1009.0
20260509211015 96 161 2.0 2.0 0.00 0.00 0.00 55 1009.0
20260509210512 98 149 2.0 2.0 0.00 0.00 0.00 55 1009.0
20260509210008 95 149 0.0 0.0 0.00 0.00 0.00 59 1009.0
20260509205502 93 156 1.0 1.0 0.00 0.00 0.00 60 1009.2
20260509204958 93 152 1.0 1.0 0.00 0.00 0.00 60 1009.1
20260509204454 95 172 0.0 0.0 0.00 0.00 0.00 56 1009.1
20260509203951 96 152 0.0 0.0 0.00 0.00 0.00 58 1009.2
20260509203447 96 156 1.0 1.0 0.00 0.00 0.00 55 1009.3
20260509202945 97 155 0.0 0.0 0.00 0.00 0.00 58 1009.5
20260509202441 96 144 0.0 1.0 0.00 0.00 0.00 56 1009.4
20260509201936 93 148 0.0 0.0 0.00 0.00 0.00 60 1009.3
20260509201431 95 156 0.0 0.0 0.00 0.00 0.00 60 1009.6
20260509200929 95 168 2.0 2.0 0.00 0.00 0.00 57 1009.5
20260509200428 93 135 0.0 0.0 0.00 0.00 0.00 60 1009.4
20260509195925 93 109 2.0 2.0 0.00 0.00 0.00 57 1009.6
20260509195415 95 166 3.0 3.0 0.00 0.00 0.00 56 1009.6
20260509194914 95 161 1.0 2.0 0.00 0.00 0.00 60 1009.7
20260509194410 94 157 0.0 0.0 0.00 0.00 0.00 57 1009.8
20260509193907 94 159 1.0 2.0 0.00 0.00 0.00 59 1009.8
20260509193407 93 152 0.0 1.0 0.00 0.00 0.00 58 1009.9
20260509192903 97 163 0.0 0.0 0.00 0.00 0.00 55 1009.8
20260509192359 95 139 0.0 1.0 0.00 0.00 0.00 61 1010.1
20260509191855 95 189 0.0 0.0 0.00 0.00 0.00 60 1009.9
20260509191351 95 157 0.0 0.0 0.00 0.00 0.00 62 1009.9
20260509190847 93 166 1.0 2.0 0.00 0.00 0.00 65 1009.9
20260509190344 91 150 0.0 0.0 0.00 0.00 0.00 64 1010.1
20260509185841 89 125 2.0 3.0 0.00 0.00 0.00 68 1010.0
20260509185338 90 140 1.0 2.0 0.00 0.00 0.00 67 1010.0
20260509184835 89 93 1.0 2.0 0.00 0.00 0.00 66 1010.1
20260509184332 92 106 1.0 2.0 0.00 0.00 0.00 68 1010.1
20260509183829 93 152 0.0 0.0 0.00 0.00 0.00 66 1010.2
20260509183324 92 144 0.0 0.0 0.00 0.00 0.00 66 1010.3
20260509182820 91 137 0.0 0.0 0.00 0.00 0.00 70 1010.5
20260509182317 89 75 0.0 0.0 0.00 0.00 0.00 73 1010.5
20260509181814 88 128 0.0 0.0 0.00 0.00 0.00 72 1010.6
20260509181313 86 156 1.0 2.0 0.00 0.00 0.00 72 1010.7
20260509180810 87 62 1.0 2.0 0.00 0.00 0.00 72 1010.8
20260509180306 87 133 1.0 2.0 0.00 0.00 0.00 76 1010.6
20260509175802 85 148 0.0 0.0 0.00 0.00 0.00 80 1010.8
20260509175258 84 120 0.0 0.0 0.00 0.00 0.00 82 1011.0
20260509174754 83 165 0.0 0.0 0.00 0.00 0.00 80 1011.1
20260509174249 83 144 0.0 0.0 0.00 0.00 0.00 79 1011.1
20260509173746 83 117 1.0 1.0 0.00 0.00 0.00 80 1011.3
20260509173241 84 163 1.0 2.0 0.00 0.00 0.00 80 1011.3
20260509172738 84 148 2.0 3.0 0.00 0.00 0.00 81 1011.3
20260509172235 84 145 0.0 0.0 0.00 0.00 0.00 83 1011.4
20260509171730 83 90 2.0 2.0 0.00 0.00 0.00 82 1011.4
20260509171226 84 160 0.0 1.0 0.00 0.00 0.00 81 1011.4
20260509170724 83 156 0.0 0.0 0.00 0.00 0.00 84 1011.3
20260509170219 84 134 0.0 1.0 0.00 0.00 0.00 82 1011.3
20260509165718 84 173 0.0 0.0 0.00 0.00 0.00 83 1011.6
20260509165213 83 206 1.0 1.0 0.00 0.00 0.00 83 1011.5
20260509164709 83 104 0.0 1.0 0.00 0.00 0.00 84 1011.5
20260509164205 83 150 0.0 1.0 0.00 0.00 0.00 85 1011.5
20260509163703 84 142 2.0 3.0 0.00 0.00 0.00 84 1011.6
20260509163159 84 170 0.0 1.0 0.00 0.00 0.00 84 1011.5
20260509162657 84 225 1.0 2.0 0.00 0.00 0.00 85 1011.5
20260509162152 84 220 2.0 2.0 0.00 0.00 0.00 84 1011.4
20260509161648 84 145 0.0 1.0 0.00 0.00 0.00 86 1011.4
20260509161144 84 166 0.0 1.0 0.00 0.00 0.00 87 1011.2
20260509160639 83 171 2.0 3.0 0.00 0.00 0.00 87 1011.2
20260509160135 83 160 1.0 1.0 0.00 0.00 0.00 88 1011.0
20260509155632 83 149 1.0 1.0 0.00 0.00 0.00 89 1011.0
20260509155128 83 142 1.0 2.0 0.00 0.00 0.00 90 1011.3
20260509154624 82 147 1.0 2.0 0.00 0.00 0.00 91 1011.3
20260509154121 81 152 1.0 1.0 0.00 0.00 0.00 94 1011.4
20260509153618 79 151 1.0 1.0 0.00 0.00 0.00 95 1011.7
20260509153115 79 155 0.0 0.0 0.00 0.00 0.00 96 1011.6
20260509152610 78 155 0.0 0.0 0.00 0.00 0.00 96 1011.4
20260509152108 78 130 0.0 0.0 0.00 0.00 0.00 97 1011.6
20260509151604 78 164 0.0 1.0 0.00 0.00 0.00 97 1011.1
20260509151102 78 153 3.0 3.0 0.00 0.00 0.00 98 1010.5
20260509150559 78 143 0.0 0.0 0.00 0.00 0.00 98 1010.8
20260509150058 78 142 0.0 1.0 0.00 0.00 0.00 98 1011.3
20260509145553 78 153 0.0 0.0 0.00 0.00 0.00 99 1011.7
20260509145049 77 153 0.0 0.0 0.00 0.00 0.00 99 1011.8
20260509144546 77 142 0.0 0.0 0.00 0.00 0.00 99 1011.6
20260509144043 77 150 0.0 0.0 0.00 0.00 0.00 99 1011.4
20260509143540 77 149 0.0 0.0 0.00 0.00 0.00 99 1011.7
20260509143038 77 165 0.0 0.0 0.00 0.00 0.00 99 1011.8
20260509142533 77 158 0.0 0.0 0.00 0.00 0.00 99 1011.6
20260509142029 77 150 0.0 0.0 0.00 0.00 0.00 99 1011.3
20260509141525 77 148 0.0 1.0 0.00 0.00 0.00 99 1011.5
20260509141022 77 144 0.0 0.0 0.00 0.00 0.00 99 1011.8
20260509140519 77 144 0.0 0.0 0.00 0.00 0.00 99 1012.0
20260509140017 77 243 0.0 0.0 0.00 0.00 0.00 99 1011.8
20260509135514 77 152 0.0 0.0 0.00 0.00 0.00 99 1011.4
20260509135011 77 147 0.0 0.0 0.00 0.00 0.00 99 1011.3
20260509134508 77 144 0.0 0.0 0.00 0.00 0.00 99 1011.2
20260509134006 77 152 0.0 0.0 0.00 0.00 0.00 99 1011.2
20260509133502 77 119 0.0 0.0 0.00 0.00 0.00 99 1011.5
20260509133000 76 142 0.0 0.0 0.00 0.00 0.00 99 1011.5
20260509132458 77 57 0.0 1.0 0.00 0.00 0.00 99 1011.2
20260509131955 77 159 0.0 1.0 0.00 0.00 0.00 99 1011.2
20260509131452 77 152 0.0 0.0 0.00 0.00 0.00 99 1011.0
20260509130949 76 140 0.0 0.0 0.00 0.00 0.00 99 1011.5
20260509130444 76 148 0.0 0.0 0.00 0.00 0.00 99 1011.4
20260509125941 76 168 0.0 0.0 0.00 0.00 0.00 99 1011.6
20260509125438 76 155 0.0 0.0 0.00 0.00 0.00 99 1011.5
20260509124934 75 147 0.0 0.0 0.00 0.00 0.00 99 1011.5
20260509124431 76 154 0.0 0.0 0.00 0.00 0.00 99 1011.4
20260509123928 76 142 0.0 0.0 0.00 0.00 0.00 99 1011.3
20260509123426 76 142 0.0 0.0 0.00 0.00 0.00 99 1011.2
20260509122922 75 146 0.0 0.0 0.00 0.00 0.00 99 1011.2
20260509122419 75 151 0.0 0.0 0.00 0.00 0.00 99 1011.3
20260509121915 75 150 0.0 0.0 0.00 0.00 0.00 99 1011.4
20260509121412 75 146 0.0 0.0 0.00 0.00 0.00 99 1011.6
20260509120911 75 146 0.0 0.0 0.00 0.00 0.00 99 1011.4
20260509120408 75 146 0.0 0.0 0.00 0.00 0.00 99 1011.5
20260509115906 75 140 0.0 0.0 0.00 0.00 0.00 99 1011.5
20260509115403 75 140 0.0 0.0 0.00 0.00 0.00 99 1011.4
20260509114900 75 140 0.0 0.0 0.00 0.00 0.00 99 1011.3
20260509114359 75 140 0.0 0.0 0.00 0.00 0.00 99 1011.2
20260509113858 75 142 0.0 0.0 0.00 0.00 0.00 99 1011.2
20260509113355 75 137 0.0 0.0 0.00 0.00 0.00 99 1011.3
20260509112851 75 148 0.0 0.0 0.00 0.00 0.00 99 1011.0
20260509112348 75 140 0.0 0.0 0.00 0.00 0.00 99 1011.0
20260509111846 75 128 0.0 0.0 0.00 0.00 0.00 99 1011.1
20260509111342 75 136 0.0 0.0 0.00 0.00 0.00 99 1011.0
20260509110840 75 150 0.0 0.0 0.00 0.00 0.00 99 1010.9
20260509110336 75 149 0.0 0.0 0.00 0.00 0.00 99 1010.9
20260509105834 75 149 0.0 0.0 0.00 0.00 0.00 99 1010.8
20260509105332 75 149 0.0 0.0 0.00 0.00 0.00 99 1010.8
20260509104829 75 142 0.0 0.0 0.00 0.00 0.00 99 1010.7
20260509104325 75 140 0.0 0.0 0.00 0.00 0.00 99 1010.5
20260509103823 75 140 0.0 0.0 0.00 0.00 0.00 99 1010.5
20260509103320 75 140 0.0 0.0 0.00 0.00 0.00 99 1010.7
20260509102820 75 81 0.0 0.0 0.00 0.00 0.00 99 1010.7
20260509102316 75 141 0.0 0.0 0.00 0.00 0.00 99 1010.8
20260509101812 75 140 0.0 0.0 0.00 0.00 0.00 99 1010.4
20260509101308 75 140 0.0 0.0 0.00 0.00 0.00 99 1010.5
20260509100806 75 141 0.0 0.0 0.00 0.00 0.00 99 1010.4
20260509100303 75 141 0.0 0.0 0.00 0.00 0.00 99 1010.6
20260509095759 75 144 0.0 0.0 0.00 0.00 0.00 99 1010.5
20260509095257 75 140 0.0 0.0 0.00 0.00 0.00 99 1010.7
20260509094754 75 144 0.0 0.0 0.00 0.00 0.00 99 1010.6
20260509094250 75 144 0.0 0.0 0.00 0.00 0.00 99 1010.3
20260509093748 75 144 0.0 0.0 0.00 0.00 0.00 99 1010.6
20260509093245 74 143 0.0 0.0 0.00 0.00 0.00 99 1010.3
20260509092744 74 143 0.0 0.0 0.00 0.00 0.00 99 1010.1
20260509092241 74 145 0.0 0.0 0.00 0.00 0.00 99 1010.0
20260509091739 75 146 0.0 0.0 0.00 0.00 0.00 99 1009.8
20260509091235 75 147 0.0 0.0 0.00 0.00 0.00 99 1009.9
20260509090733 75 148 0.0 0.0 0.00 0.00 0.00 99 1010.0
20260509090230 75 148 0.0 0.0 0.00 0.00 0.00 99 1009.8
20260509085728 75 142 0.0 0.0 0.00 0.00 0.00 99 1009.8
20260509085225 74 139 0.0 0.0 0.00 0.00 0.00 99 1009.7
20260509084721 74 147 0.0 0.0 0.00 0.00 0.00 99 1009.9
20260509084218 74 147 0.0 0.0 0.00 0.00 0.00 99 1009.8
20260509083716 74 144 0.0 0.0 0.00 0.00 0.00 99 1010.2
20260509083212 73 145 0.0 0.0 0.00 0.00 0.00 99 1010.2
20260509082709 73 129 0.0 0.0 0.00 0.00 0.00 99 1010.1
20260509082206 73 145 0.0 0.0 0.00 0.00 0.00 99 1010.4
20260509081702 73 151 0.0 0.0 0.00 0.00 0.00 99 1010.4
20260509081200 73 142 0.0 0.0 0.00 0.00 0.00 99 1010.8
20260509080658 73 142 0.0 0.0 0.00 0.00 0.00 99 1010.6
20260509080155 73 142 0.0 0.0 0.00 0.00 0.00 99 1010.7
20260509075654 73 142 0.0 0.0 0.00 0.00 0.00 99 1010.7
20260509075151 73 142 0.0 0.0 0.00 0.00 0.00 99 1010.9
20260509074648 73 142 0.0 0.0 0.00 0.00 0.00 99 1010.9
20260509074144 73 142 0.0 0.0 0.00 0.00 0.00 99 1010.8
20260509073641 73 146 0.0 0.0 0.00 0.00 0.00 99 1010.8
20260509073137 73 142 0.0 0.0 0.00 0.00 0.00 99 1010.9
20260509072634 73 145 0.0 0.0 0.00 0.00 0.00 99 1010.8
20260509072131 74 147 0.0 0.0 0.00 0.00 0.00 99 1010.9
20260509071627 74 147 0.0 0.0 0.00 0.00 0.00 99 1011.0
20260509071125 74 142 0.0 0.0 0.00 0.00 0.00 99 1010.6
20260509070622 74 142 0.0 0.0 0.00 0.00 0.00 99 1010.8
20260509070118 74 142 0.0 0.0 0.00 0.00 0.00 99 1010.8